Location: 01445 Radebeul, Deutschland
(51.1161°N, 13.6224°E)
Time: 02:06:00
(UTC+01:00)

ISS - Pass Details

Date: 26 January 2018
Orbit: 403 x 407 km, 51.6° (Epoch: 22 February)

Event Time Altitude Azimuth Distance (km) Brightness Sun altitude
Rises 18:48:21 0° 210° (SSW) 2,307 0.5 -19.1°
Reaches altitude 10° 18:50:45 10° 193° (SSW) 1,453 -0.8 -19.4°
Enters shadow 18:52:04 17° 172° (S) 1,113 -1.7 -19.6°
